• In Belarus
  • List of Countries
  • For 7 days
  • Water Temperature
  • Satellite Maps
  • Weather Map
  • Weather Widgets
  • user-avatar
    Login

    Hourly Weather Belize

    Today, 20 February, Tuesday

    Time Temperature Precipitation Wind Pressure Humidity
    00:00 +24°C° 0.2 mm 6 mps 761 mmHg 96%
    01:00 +24°C° 0.2 mm 6 mps 761 mmHg 95%
    02:00 +24°C° 0.2 mm 6 mps 761 mmHg 94%
    03:00 +24°C° 0.2 mm 6 mps 760 mmHg 93%
    04:00 +24°C° 0.3 mm 6 mps 761 mmHg 93%
    05:00 +24°C° 0.3 mm 7 mps 761 mmHg 92%
    06:00 +24°C° 0.3 mm 7 mps 761 mmHg 91%
    07:00 +26°C° 0.6 mm 7 mps 761 mmHg 86%
    08:00 +27°C° 0.6 mm 7 mps 762 mmHg 80%
    09:00 +29°C° 0.6 mm 7 mps 762 mmHg 75%
    10:00 +29°C° 0.2 mm 7 mps 762 mmHg 71%
    11:00 +30°C° 0.2 mm 7 mps 762 mmHg 67%
    12:00 +32°C° 0.2 mm 7 mps 762 mmHg 63%
    13:00 +32°C° 0.1 mm 7 mps 762 mmHg 64%
    14:00 +32°C° 0.1 mm 6 mps 761 mmHg 64%
    15:00 +32°C° 0.1 mm 6 mps 761 mmHg 65%
    16:00 +29°C° 0.3 mm 6 mps 761 mmHg 72%
    17:00 +28°C° 0.3 mm 7 mps 761 mmHg 80%
    18:00 +26°C° 0.3 mm 7 mps 761 mmHg 88%
    19:00 +26°C° 0.9 mm 7 mps 761 mmHg 89%
    20:00 +24°C° 0.9 mm 7 mps 762 mmHg 89%
    21:00 +24°C° 0.9 mm 7 mps 762 mmHg 90%
    22:00 +24°C° 0.1 mm 7 mps 762 mmHg 90%
    23:00 +24°C° 0.1 mm 7 mps 762 mmHg 90%

    Tomorrow, 21 February, Wednesday

    Time Temperature Precipitation Wind Pressure Humidity
    00:00 +24°C° 0.1 mm 8 mps 762 mmHg 90%
    01:00 +24°C° 0.1 mm 8 mps 762 mmHg 89%
    02:00 +26°C° 0.1 mm 7 mps 762 mmHg 88%
    03:00 +26°C° 0.1 mm 7 mps 762 mmHg 87%
    04:00 +26°C° 0 mm 7 mps 762 mmHg 87%
    05:00 +26°C° 0 mm 7 mps 762 mmHg 86%
    06:00 +24°C° 0 mm 6 mps 762 mmHg 85%
    07:00 +27°C° 0.1 mm 7 mps 763 mmHg 79%
    08:00 +28°C° 0.1 mm 7 mps 763 mmHg 73%
    09:00 +30°C° 0.1 mm 7 mps 764 mmHg 67%
    10:00 +29°C° 0.7 mm 7 mps 764 mmHg 72%
    11:00 +29°C° 0.7 mm 7 mps 764 mmHg 77%
    12:00 +29°C° 0.7 mm 7 mps 764 mmHg 81%
    13:00 +28°C° 0.8 mm 7 mps 763 mmHg 84%
    14:00 +28°C° 0.8 mm 7 mps 763 mmHg 87%
    15:00 +27°C° 0.8 mm 6 mps 762 mmHg 90%
    16:00 +27°C° 0.4 mm 6 mps 762 mmHg 92%
    17:00 +26°C° 0.4 mm 6 mps 762 mmHg 94%
    18:00 +25°C° 0.4 mm 5 mps 762 mmHg 96%
    19:00 +25°C° 0 mm 5 mps 763 mmHg 96%
    20:00 +25°C° 0 mm 5 mps 763 mmHg 96%
    21:00 +23°C° 0 mm 6 mps 764 mmHg 97%
    22:00 +23°C° 0.1 mm 6 mps 764 mmHg 97%
    23:00 +23°C° 0.1 mm 6 mps 763 mmHg 97%

    Day after tomorrow, 22 February, Thursday

    Time Temperature Precipitation Wind Pressure Humidity
    00:00 +23°C° 0.1 mm 6 mps 763 mmHg 97%
    01:00 +23°C° 0.1 mm 6 mps 763 mmHg 97%
    02:00 +23°C° 0.1 mm 5 mps 762 mmHg 97%
    03:00 +23°C° 0.1 mm 5 mps 762 mmHg 97%
    04:00 +23°C° 0.1 mm 5 mps 762 mmHg 97%
    05:00 +23°C° 0.1 mm 5 mps 762 mmHg 98%
    06:00 +23°C° 0.1 mm 5 mps 763 mmHg 98%
    07:00 +25°C° 0.3 mm 5 mps 763 mmHg 96%
    08:00 +26°C° 0.3 mm 5 mps 764 mmHg 94%
    09:00 +27°C° 0.3 mm 5 mps 764 mmHg 92%
    10:00 +28°C° 0.5 mm 5 mps 764 mmHg 90%
    11:00 +28°C° 0.5 mm 5 mps 764 mmHg 87%
    12:00 +29°C° 0.5 mm 5 mps 764 mmHg 85%
    13:00 +29°C° 0.5 mm 5 mps 763 mmHg 81%
    14:00 +29°C° 0.5 mm 4 mps 762 mmHg 78%
    15:00 +30°C° 0.5 mm 4 mps 762 mmHg 74%
    16:00 +29°C° 0 mm 4 mps 762 mmHg 78%
    17:00 +27°C° 0 mm 4 mps 762 mmHg 81%
    18:00 +26°C° 0 mm 4 mps 762 mmHg 85%
    19:00 +26°C° 0.1 mm 4 mps 763 mmHg 88%
    20:00 +25°C° 0.1 mm 4 mps 763 mmHg 92%
    21:00 +23°C° 0.1 mm 4 mps 764 mmHg 95%
    22:00 +23°C° 0.2 mm 5 mps 764 mmHg 96%
    23:00 +23°C° 0.2 mm 5 mps 763 mmHg 97%

    23 February, Friday

    Time Temperature Precipitation Wind Pressure Humidity
    00:00 +23°C° 0.2 mm 5 mps 763 mmHg 97%
    01:00 +23°C° 0.6 mm 5 mps 763 mmHg 98%
    02:00 +23°C° 0.6 mm 5 mps 762 mmHg 98%
    03:00 +23°C° 0.6 mm 5 mps 762 mmHg 98%
    04:00 +23°C° 0.1 mm 5 mps 762 mmHg 98%
    05:00 +23°C° 0.1 mm 5 mps 762 mmHg 98%
    06:00 +23°C° 0.1 mm 5 mps 763 mmHg 98%
    07:00 +25°C° 0.1 mm 5 mps 763 mmHg 94%
    08:00 +27°C° 0.1 mm 5 mps 764 mmHg 89%
    09:00 +28°C° 0.1 mm 5 mps 764 mmHg 85%
    10:00 +28°C° 0.8 mm 5 mps 764 mmHg 86%
    11:00 +28°C° 0.8 mm 5 mps 763 mmHg 87%
    12:00 +28°C° 0.8 mm 5 mps 763 mmHg 87%
    13:00 +28°C° 0.6 mm 5 mps 762 mmHg 86%
    14:00 +28°C° 0.6 mm 5 mps 762 mmHg 84%
    15:00 +28°C° 0.6 mm 4 mps 761 mmHg 82%
    16:00 +27°C° 0.3 mm 4 mps 761 mmHg 86%
    17:00 +26°C° 0.3 mm 4 mps 761 mmHg 90%
    18:00 +25°C° 0.3 mm 3 mps 761 mmHg 95%
    19:00 +24°C° 0 mm 3 mps 762 mmHg 96%
    20:00 +24°C° 0 mm 3 mps 762 mmHg 96%
    21:00 +23°C° 0 mm 4 mps 762 mmHg 97%
    22:00 +23°C° 0 mm 4 mps 762 mmHg 98%
    23:00 +23°C° 0 mm 4 mps 762 mmHg 98%

    24 February, Saturday

    Time Temperature Precipitation Wind Pressure Humidity
    00:00 +23°C° 0 mm 4 mps 761 mmHg 98%
    01:00 +23°C° 0.1 mm 4 mps 761 mmHg 98%
    02:00 +23°C° 0.1 mm 4 mps 761 mmHg 98%
    03:00 +23°C° 0.1 mm 4 mps 760 mmHg 98%
    04:00 +23°C° 0.1 mm 4 mps 760 mmHg 98%
    05:00 +23°C° 0.1 mm 4 mps 760 mmHg 98%
    06:00 +23°C° 0.1 mm 4 mps 761 mmHg 98%
    07:00 +25°C° 0.1 mm 4 mps 761 mmHg 95%
    08:00 +26°C° 0.1 mm 4 mps 762 mmHg 93%
    09:00 +27°C° 0.1 mm 5 mps 762 mmHg 90%
    10:00 +29°C° 0.1 mm 5 mps 762 mmHg 79%
    11:00 +30°C° 0.1 mm 4 mps 761 mmHg 69%
    12:00 +32°C° 0.1 mm 4 mps 761 mmHg 58%
    13:00 +32°C° 0 mm 4 mps 760 mmHg 58%
    14:00 +32°C° 0 mm 4 mps 760 mmHg 58%
    15:00 +32°C° 0 mm 4 mps 759 mmHg 58%
    16:00 +29°C° 0 mm 4 mps 759 mmHg 67%
    17:00 +28°C° 0 mm 4 mps 759 mmHg 77%
    18:00 +26°C° 0 mm 4 mps 759 mmHg 86%
    19:00 +25°C° 0 mm 4 mps 760 mmHg 89%
    20:00 +25°C° 0 mm 4 mps 760 mmHg 92%
    21:00 +23°C° 0 mm 5 mps 760 mmHg 96%
    22:00 +23°C° 0 mm 5 mps 760 mmHg 95%
    23:00 +23°C° 0 mm 5 mps 760 mmHg 95%

    25 February, Sunday

    Time Temperature Precipitation Wind Pressure Humidity
    00:00 +23°C° 0 mm 5 mps 760 mmHg 95%
    01:00 +23°C° 0 mm 5 mps 760 mmHg 95%
    02:00 +23°C° 0 mm 5 mps 759 mmHg 95%
    03:00 +23°C° 0 mm 5 mps 759 mmHg 95%
    04:00 +23°C° 0 mm 5 mps 759 mmHg 95%
    05:00 +23°C° 0 mm 5 mps 760 mmHg 96%
    06:00 +23°C° 0 mm 5 mps 760 mmHg 97%
    07:00 +26°C° 0 mm 5 mps 761 mmHg 92%
    08:00 +27°C° 0 mm 5 mps 761 mmHg 87%
    09:00 +28°C° 0 mm 6 mps 762 mmHg 82%
    10:00 +29°C° 0.1 mm 5 mps 761 mmHg 75%
    11:00 +30°C° 0.1 mm 5 mps 761 mmHg 68%
    12:00 +32°C° 0.1 mm 5 mps 761 mmHg 61%
    13:00 +32°C° 0 mm 5 mps 760 mmHg 61%
    14:00 +32°C° 0 mm 5 mps 760 mmHg 60%
    15:00 +32°C° 0 mm 5 mps 759 mmHg 60%
    16:00 +30°C° 0 mm 5 mps 760 mmHg 69%
    17:00 +28°C° 0 mm 5 mps 760 mmHg 77%
    18:00 +26°C° 0 mm 4 mps 760 mmHg 86%
    19:00 +26°C° 0 mm 5 mps 760 mmHg 89%
    20:00 +25°C° 0 mm 5 mps 761 mmHg 92%
    21:00 +25°C° 0 mm 5 mps 761 mmHg 95%
    22:00 +25°C° 0 mm 5 mps 761 mmHg 95%
    23:00 +25°C° 0 mm 5 mps 761 mmHg 96%
    Show more